{"data":{"norad_id":39727,"intl_designator":"2014-023A","name":"LUCH 5V (SDCM/PRN 141)","alt_names":[],"object_type":"PAYLOAD","status":"ACTIVE","operator":null,"country":"CIS","launch_date":"2014-04-28","launch_site_code":"TYMSC","launch_vehicle":null,"mission":null,"orbit_class":"UNKNOWN","rcs_meters":22.5893,"size_class":null,"mass_kg":null,"dimensions":null,"purposes":["comms","earth_obs","nav"],"wikipedia_slug":null,"has_3d_model":false,"image_url":null,"decayed_at":null,"tle_current":{"epoch":"2026-09-20T00:15:46.867104Z","epoch_age_seconds":56742,"freshness":"FRESH","line1":"1 39727U 14023A   26263.01095911 -.00000270  00000+0  00000+0 0  9991","line2":"2 39727   5.3637  68.7043 0002731 139.1245 249.7310  1.00268942 45311","mean_motion":1.00268942,"eccentricity":0.0002731,"inclination_deg":5.3637,"raan_deg":68.7043,"arg_perigee_deg":139.1245,"mean_anomaly_deg":249.731,"bstar":0,"rev_number":4531,"period_min":1436.1376227546,"perigee_km":35775.876570163,"apogee_km":35798.907382089,"semimajor_km":42165.528976126,"source":"CELESTRAK","updated_at":"2026-09-20T09:00:46.835271Z"}}}